Location: Baix
(44.7118°N, 4.7648°E)
Time: 18:52:01
(UTC+00:00)

IRS-1D - Pass Details

Date: 07 August 2020
Orbit: 741 x 816 km, 98.6° (Epoch: 24 September)

Event Time Altitude Azimuth Distance (km) Brightness Sun altitude
Rises 02:22:37 0° 10° (N) 3,214 7.7 -19.4°
Reaches altitude 10° 02:24:56 10° 6° (N) 2,294 6.8 -19.2°
Maximum altitude 02:29:53 58° 289° (WNW) 890 3.7 -18.6°
Enters shadow 02:31:55 34° 225° (SW) 1,252 4.0 -18.3°
